x

8419317 - Wells, Me (welm1) Weather Station

10:06 - Sun 26th Mar 2017 All times are EDT. -4 hours from GMT.

  • Wind
    10mph, 11mph gusts
  • Sea Temp 38°f
  • Aire Temp 36°f
  • Sea Pressure 1031.3mb
  • 8419317 - Wells, Me
  • 8419317 - Wells, Me

More Historic Weather Station data

Upgrade to MSW Pro to gain access to the past 30 days of data for over 8000 Wavebouys and Weather Stations around the globe.

Join Pro

Comparision Forecast

View Surf forecast
   
dom 03/26 10:06 10 11 mph 1031.3mb 38f 36f
10:00 8 11 mph 1031.3mb 38f 36f
9:54 8 10 mph 1031.4mb 38f 36f
9:48 9 10 mph 1031.4mb 38f 36f
9:42 9 11 mph 1031.5mb 38f 36f
9:36 8 9 mph 1031.5mb 38f 36f
9:30 8 10 mph 1031.5mb 38f 36f
9:24 8 10 mph 1031.7mb 38f 36f
9:18 8 10 mph 1031.6mb 38f 35f
9:12 7 9 mph 1031.5mb 38f 35f
9:06 7 10 mph 1031.6mb 38f 35f
9:00 8 10 mph 1031.9mb 38f 36f
8:54 8 9 mph 1032.1mb 38f 35f
8:48 9 10 mph 1032mb 38f 35f
8:42 9 11 mph 1032.1mb 38f 35f
8:36 7 9 mph 1032.1mb 38f 35f
8:30 8 9 mph 1032.1mb 38f 35f
8:24 7 9 mph 1032.1mb 38f 35f
8:18 7 9 mph 1032.3mb 38f 35f
8:12 8 9 mph 1032.2mb 38f 35f
8:06 7 8 mph 1032.2mb 38f 35f
8:00 8 10 mph 1032.3mb 38f 35f
7:54 8 10 mph 1032.3mb 39f 35f
7:48 7 9 mph 1032.4mb 39f 35f
7:42 8 10 mph 1032.4mb 39f 35f
7:36 8 9 mph 1032.4mb 39f 35f
7:30 8 10 mph 1032.4mb 40f 35f
7:24 7 10 mph 1032.6mb 40f 35f
7:18 9 11 mph 1032.7mb 40f 35f
7:12 9 10 mph 1032.9mb 40f 35f
7:06 9 10 mph 1033mb 40f 35f
7:00 8 10 mph 1033mb 40f 35f
6:54 9 10 mph 1033mb 40f 35f
6:48 9 11 mph 1033mb 40f 35f
6:42 9 11 mph 1032.9mb 40f 35f
6:36 9 11 mph 1033.1mb 40f 35f
6:30 8 10 mph 1033.1mb 40f 35f
6:24 9 11 mph 1033.1mb 40f 35f
6:18 8 9 mph 1033.2mb 40f 35f
6:12 9 10 mph 1033.2mb 40f 35f
6:06 8 10 mph 1033.3mb 40f 35f
6:00 8 10 mph 1033.2mb 40f 35f
5:54 6 9 mph 1033.1mb 40f 35f
5:48 9 11 mph 1033.2mb 39f 35f
5:42 9 11 mph 1033.3mb 39f 35f
5:36 8 10 mph 1033.3mb 39f 35f
5:30 9 11 mph 1033.3mb 39f 35f
5:24 9 11 mph 1033.4mb 39f 35f
5:18 9 11 mph 1033.4mb 39f 35f
5:12 8 10 mph 1033.4mb 39f 35f
5:06 9 11 mph 1033.5mb 39f 35f
5:00 6 9 mph 1033.4mb 39f 35f
4:54 8 11 mph 1033.5mb 39f 34f
4:48 9 11 mph 1033.4mb 39f 35f
4:42 8 9 mph 1033.4mb 39f 34f
4:36 7 9 mph 1033.4mb 39f 35f
4:30 7 9 mph 1033.5mb 39f 35f
4:24 8 9 mph 1033.5mb 39f 35f
4:18 8 10 mph 1033.5mb 39f 35f
4:12 6 8 mph 1033.4mb 39f 35f
4:06 6 9 mph 1033.4mb 39f 35f
4:00 7 9 mph 1033.5mb 39f 35f
3:54 6 8 mph 1033.4mb 38f 34f
3:48 7 8 mph 1033.4mb 38f 34f
3:42 6 7 mph 1033.4mb 38f 35f
3:36 6 8 mph 1033.5mb 38f 34f
3:30 7 8 mph 1033.5mb 38f 34f
3:24 8 9 mph 1033.6mb 38f 34f
3:18 8 9 mph 1033.7mb 38f 34f
3:12 8 9 mph 1033.7mb 39f 34f
3:06 7 9 mph 1033.8mb 38f 34f
3:00 8 10 mph 1033.9mb 38f 34f
2:54 7 9 mph 1034mb 38f 34f
2:48 6 10 mph 1034.2mb 38f 34f
2:42 6 10 mph 1034.2mb 38f 34f
2:36 7 9 mph 1034.3mb 38f 34f
2:30 8 9 mph 1034.5mb 38f 34f
2:24 7 10 mph 1034.5mb 38f 34f
2:18 6 10 mph 1034.7mb 38f 33f
2:12 7 10 mph 1034.6mb 38f 34f
2:06 7 10 mph 1034.7mb 38f 33f
2:00 6 9 mph 1034.9mb 38f 33f
1:54 7 9 mph 1034.9mb 38f 33f
1:48 7 9 mph 1035mb 37f 33f
1:42 8 11 mph 1035.1mb 37f 33f
1:36 7 11 mph 1035.1mb 37f 33f
1:30 8 13 mph 1035.2mb 38f 33f
1:24 10 11 mph 1035.2mb 38f 33f
1:18 9 10 mph 1035.4mb 38f 32f
1:12 9 11 mph 1035.5mb 38f 32f
1:06 7 10 mph 1035.6mb 38f 32f
1:00 7 10 mph 1035.7mb 38f 32f
12:54 7 10 mph 1035.8mb 38f 32f
12:48 9 11 mph 1035.7mb 38f 32f
12:42 10 13 mph 1035.6mb 38f 32f
12:36 8 10 mph 1035.7mb 38f 32f
12:30 10 13 mph 1035.7mb 38f 32f
12:24 9 11 mph 1035.8mb 38f 32f
12:18 10 11 mph 1035.9mb 38f 32f
12:12 9 14 mph 1035.9mb 38f 32f
12:06 9 14 mph 1035.9mb 38f 32f
12:00 11 14 mph 1035.9mb 38f 32f
11:54 10 15 mph 1035.8mb 38f 32f
11:48 11 14 mph 1035.8mb 38f 32f
11:42 11 15 mph 1035.8mb 38f 32f
11:36 13 15 mph 1035.8mb 38f 32f
11:30 11 14 mph 1035.8mb 37f 32f
11:24 13 15 mph 1035.8mb 37f 33f
11:18 11 14 mph 1035.8mb 37f 32f
11:12 10 14 mph 1036mb 37f 32f
11:06 10 14 mph 1035.9mb 37f 33f
11:00 11 15 mph 1036mb 37f 33f
10:54 10 15 mph 1036mb 37f 32f
10:48 10 14 mph 1036mb 37f 33f
10:42 11 16 mph 1036mb 37f 33f
10:36 11 15 mph 1035.9mb 37f 32f
10:30 11 15 mph 1035.8mb 37f 33f
10:24 11 16 mph 1035.9mb 37f 33f
10:18 13 16 mph 1035.8mb 37f 33f
10:12 13 16 mph 1035.7mb 37f 33f
10:06 13 16 mph 1035.8mb 37f 33f
10:00 11 16 mph 1035.8mb 37f 33f
9:54 11 15 mph 1035.7mb 37f 33f
9:48 13 15 mph 1035.6mb 37f 33f
9:42 10 15 mph 1035.6mb 37f 33f
9:36 14 16 mph 1035.5mb 37f 33f
9:30 11 15 mph 1035.5mb 37f 33f
9:24 14 17 mph 1035.5mb 37f 33f
9:18 11 18 mph 1035.4mb 37f 33f
9:12 15 18 mph 1035.4mb 37f 33f
9:06 14 16 mph 1035.3mb 37f 33f
9:00 11 17 mph 1035.4mb 37f 33f
8:54 8 10 mph 1035.3mb 37f 33f
8:48 7 10 mph 1035.2mb 37f 32f
8:42 8 10 mph 1035.2mb 37f 32f
8:36 8 10 mph 1035.2mb 37f 31f
8:30 8 9 mph 1035.4mb 37f 31f
8:24 7 9 mph 1035.3mb 37f 31f
8:18 7 9 mph 1035.3mb 37f 31f
8:12 6 7 mph 1035.3mb 37f 30f
8:06 7 9 mph 1035.2mb 37f 30f
8:00 7 9 mph 1035.1mb 37f 30f
7:54 7 10 mph 1035.2mb 37f 29f
7:48 8 10 mph 1035mb 37f 29f
7:42 8 10 mph 1034.9mb 37f 29f
7:36 8 10 mph 1035mb 37f 28f
7:30 7 9 mph 1035mb 37f 28f
7:24 7 8 mph 1035mb 37f 28f
7:18 6 8 mph 1034.9mb 37f 28f
7:12 6 7 mph 1034.9mb 37f 28f
7:06 6 8 mph 1034.9mb 37f 27f
7:00 7
mph
1034.7mb 37f 27f
6:54 6 7 mph 1034.8mb 37f 27f
6:48 6 7 mph 1034.6mb 37f 27f
6:42 6 7 mph 1034.7mb 37f 27f
6:36 6 8 mph 1034.6mb 37f 27f
6:30 7 8 mph 1034.5mb 37f 27f
6:24 7
mph
1034.5mb 37f 27f
6:18 6 7 mph 1034.4mb 37f 27f
6:12 5 7 mph 1034.2mb 37f 27f
6:06 7 8 mph 1034.1mb 37f 27f
6:00 7 8 mph 1033.8mb 37f 27f
5:54 7 8 mph 1033.8mb 37f 27f
5:48 7
mph
1033.6mb 37f 28f
5:42 7
mph
1033.5mb 37f 28f
5:36 6 8 mph 1033.5mb 37f 28f
5:30 7 8 mph 1033.5mb 37f 28f
5:24 7 8 mph 1033.4mb 37f 28f
5:18 6 9 mph 1033.3mb 37f 28f
5:12 7 8 mph 1033.2mb 37f 28f
5:06 6 9 mph 1033.2mb 37f 28f
5:00 9 10 mph 1032.8mb 37f 28f
4:54 9 11 mph 1032.7mb 37f 28f
4:48 9 11 mph 1032.5mb 37f 28f
4:42 8 10 mph 1032.4mb 37f 28f
4:36 9 11 mph 1032.4mb 37f 28f
4:30 9 13 mph 1032.4mb 37f 29f
4:24 8 10 mph 1032.4mb 37f 28f
4:18 8 11 mph 1032.3mb 37f 29f
4:12 8 10 mph 1032.2mb 37f 29f
4:06 7 9 mph 1032.3mb 37f 29f
4:00 8 10 mph 1032.3mb 37f 29f
3:54 8 10 mph 1032.2mb 37f 29f
3:48 9 10 mph 1032.1mb 37f 29f
3:42 9 11 mph 1032.1mb 37f 29f
3:36 8 9 mph 1032.2mb 37f 30f
3:30 7 9 mph 1032.2mb 37f 30f
3:24 7 9 mph 1032.2mb 37f 30f
3:18 8 10 mph 1032.2mb 37f 31f
3:12 8 11 mph 1032.2mb 37f 31f
3:06 7 9 mph 1032.1mb 37f 31f
3:00 7 10 mph 1032mb 37f 31f
2:54 7 11 mph 1032mb 37f 31f
2:48 9 11 mph 1031.9mb 37f 31f
2:42 8 11 mph 1031.9mb 37f 31f
2:36 9 11 mph 1031.9mb 37f 31f
2:30 8 10 mph 1031.9mb 37f 31f
2:24 8 10 mph 1031.9mb 37f 31f
2:18 7 9 mph 1031.8mb 37f 31f
2:12 7 9 mph 1031.7mb 38f 32f
2:06 8 10 mph 1031.5mb 38f 32f
2:00 9 11 mph 1031.5mb 38f 32f
1:54 8 10 mph 1031.3mb 38f 32f
1:48 9 11 mph 1031.3mb 38f -
1:42 9 11 mph 1031.2mb 38f -
1:36 10 13 mph 1031.2mb 38f -
1:30 10 14 mph 1031.1mb 38f 33f
1:24 10 13 mph 1031.2mb 38f 33f
1:18 10 15 mph 1031.2mb 38f 33f
1:12 11 14 mph 1031.2mb 38f 33f
1:06 10 11 mph 1031.1mb 38f 33f
1:00 9 10 mph 1031.1mb 38f 33f
12:54 8 10 mph 1031.2mb 38f 33f
12:48 7 8 mph 1031.2mb 38f 32f
12:42 6 8 mph 1031.1mb 38f 33f
12:36 7 8 mph 1031mb 38f 33f
12:30 6 8 mph 1030.9mb 38f 32f
12:24 6 8 mph 1030.9mb 38f 32f
12:18 3 6 mph 1030.8mb 37f 32f
12:12 3 7 mph 1030.8mb 37f 33f
12:06 6 9 mph 1030.8mb 37f 33f
12:00 9 13 mph 1030.5mb 37f 34f
sáb 03/25 11:54 9 13 mph 1030.4mb 37f 34f
11:48 9 14 mph 1030.3mb 38f 34f
11:42 9 11 mph 1030.3mb 38f 34f
11:36 7 9 mph 1030.3mb 38f 33f
11:30 7 8 mph 1030.2mb 38f 33f
11:24 6 7 mph 1030.1mb 38f 33f
11:18 6 7 mph 1030.1mb 38f 33f
11:12 7 8 mph 1029.9mb 38f 33f
11:06 6 7 mph 1029.9mb 38f 33f
11:00 6 8 mph 1029.9mb 38f 33f
10:54 6 7 mph 1029.8mb 38f 32f
10:48 5 6 mph 1029.8mb 38f 32f
10:42 3 6 mph 1029.6mb 38f 32f
10:36 3 5 mph 1029.6mb 38f 32f
10:30 5
mph
1029.6mb 38f 32f
10:24 5 6 mph 1029.6mb 38f 32f
10:18 5 6 mph 1029.6mb 38f 32f
10:12 3 6 mph 1029.6mb 38f 32f
10:06 5
mph
1029.5mb 38f 32f
10:00 3 5 mph 1029.4mb 38f 32f
9:54 2
mph
1029.3mb 38f 32f
9:48 1 2 mph 1029.3mb 38f 32f
9:42 1 3 mph 1029.3mb 38f 32f
9:36 5 6 mph 1029.1mb 38f 32f
9:30 5 6 mph 1029mb 38f 32f
9:24 3 6 mph 1029mb 38f 33f
9:18 5 6 mph 1029mb 38f 33f
9:12 5 6 mph 1028.8mb 38f 33f
9:06 3 6 mph 1028.9mb 38f 33f
9:00 3 7 mph 1028.7mb 38f 34f
8:54 5 7 mph 1028.6mb 38f 34f
8:48 5 7 mph 1028.5mb 38f 34f
8:42 5 7 mph 1028.4mb 38f 34f
8:36 5 7 mph 1028.3mb 38f 34f
8:30 3 5 mph 1028.3mb 38f 34f
8:24  -  1 mph 1028.2mb 38f 34f
8:18 2 3 mph 1028.1mb 38f 34f
8:12 1 2 mph 1028mb 38f 34f
8:06 1 2 mph 1027.9mb 38f 35f
8:00  -  2 mph 1027.8mb 38f 35f
7:54  -  1 mph 1027.6mb 38f 35f
7:48 1 3 mph 1027.5mb 38f 35f
7:42 2 3 mph 1027.3mb 38f 36f
7:36 2 3 mph 1027.1mb 38f 36f
7:30 3 5 mph 1027mb 38f 36f
7:24 3 6 mph 1026.8mb 38f 36f
7:18 3 6 mph 1026.8mb 38f 37f
7:12 5 7 mph 1026.7mb 38f 37f
7:06 3 6 mph 1026.5mb 38f 37f
7:00 3 6 mph 1026.6mb 38f 37f
6:54 5 6 mph 1026.5mb 38f 37f
6:48 3 6 mph 1026.4mb 38f 38f
6:42 5 6 mph 1026.4mb 38f 38f
6:36 5 7 mph 1026.4mb 38f 38f
6:30 5 8 mph 1026.4mb 38f 38f
6:24 6 8 mph 1026.4mb 38f 38f
6:18 6 7 mph 1026.3mb 38f 38f
6:12 7 8 mph 1026.2mb 38f 38f
6:06 3 8 mph 1026.3mb 38f 39f
6:00 6 8 mph 1026.2mb 38f 39f
5:54 5 7 mph 1026.1mb 38f 39f
5:48 6 8 mph 1026.1mb 38f 39f
5:42 5 7 mph 1026.1mb 38f 39f
5:36 5 7 mph 1026.1mb 38f 39f
5:30 7 8 mph 1026.1mb 38f 40f
5:24 5 7 mph 1026mb 38f 39f
5:18 3 7 mph 1026mb 38f 40f
5:12 3 7 mph 1025.8mb 38f 39f
5:06 5 7 mph 1025.6mb 38f 39f
5:00 5 7 mph 1025.5mb 38f 39f
4:54 5 7 mph 1025.5mb 38f 39f
4:48 5 7 mph 1025.6mb 38f 39f
4:42 6 8 mph 1025.4mb 38f 39f
4:36 5 7 mph 1025.5mb 38f 39f
4:30 5 7 mph 1025.8mb 38f 39f
4:24 5 7 mph 1025.3mb 38f 39f
4:18 5 8 mph 1025.1mb 38f 39f
4:12 5 7 mph 1025.4mb 38f 39f
4:06 5 7 mph 1025.4mb 38f 39f
4:00 6 7 mph 1025.4mb 38f 39f
3:54 3 8 mph 1025.2mb 38f 39f
3:48 3 7 mph 1025.3mb 38f 39f
3:42 6 8 mph 1025.6mb 38f 39f
3:36 6 7 mph 1025.7mb 37f 39f
3:30 3 7 mph 1025.4mb 37f 39f
3:24 3 9 mph 1025.2mb 37f 39f
3:18 5 7 mph 1025.3mb 37f 39f
3:12 6 8 mph 1025.5mb 37f 39f
3:06 5 7 mph 1025.7mb 37f 39f
3:00 7 9 mph 1025.5mb 37f 39f
2:54 5 8 mph 1025.5mb 37f 39f
2:48 3 6 mph 1025.4mb 37f 40f
2:42 3 6 mph 1025.3mb 37f 40f
2:36 3 7 mph 1025.3mb 37f 40f
2:30 3 7 mph 1025.3mb 37f 40f
2:24 2 5 mph 1025.3mb 38f 40f
2:18 2 5 mph 1025.3mb 38f 41f
2:12 1 5 mph 1025.1mb 38f 40f
2:06 2 5 mph 1025.3mb 37f 40f
2:00 3 6 mph 1025.4mb 37f 39f
1:54 3 7 mph 1025.5mb 37f 39f
1:48 6
mph
1025.5mb 37f 39f
1:42 5
mph
1025.4mb 37f 39f
1:36 3 6 mph 1025.4mb 37f 39f
1:30 5 6 mph 1025.5mb 37f 39f
1:24 3 5 mph 1025.4mb 37f 39f
1:18 2 5 mph 1025.4mb 37f 39f
1:12 3 7 mph 1025.5mb 37f 39f
1:06 7 8 mph 1025.5mb 37f 39f
1:00 5 7 mph 1025.2mb 37f 39f
12:54 5 6 mph 1025.1mb 37f 39f
12:48 6 8 mph 1025.1mb 37f 39f
12:42 5 7 mph 1025mb 37f 39f
12:36 6 8 mph 1024.9mb 37f 39f
12:30 7 9 mph 1024.8mb 38f 39f
12:24 6 8 mph 1024.8mb 38f 39f
12:18 6 8 mph 1024.7mb 38f 39f
12:12 6 7 mph 1024.5mb 38f 39f
12:06 5 8 mph 1024.5mb 38f 39f
12:00 6 8 mph 1024.3mb 38f 39f
11:54 6 9 mph 1024.4mb 38f 39f
11:48 7 10 mph 1024.2mb 38f 39f
11:42 6 8 mph 1024.3mb 38f 39f
11:36 6 7 mph 1024.3mb 38f 39f
11:30 6 9 mph 1024.3mb 38f 39f
11:24 6 10 mph 1024.3mb 38f 39f
11:18 7 10 mph 1024.3mb 38f 38f
11:12 8 10 mph 1024.4mb 38f 38f
11:06 7 11 mph 1024.4mb 38f 38f
11:00 8 10 mph 1024.3mb 38f 38f
10:54 10 13 mph 1024.1mb 38f 38f
10:48 8 14 mph 1024.3mb 38f 38f
10:42 8 11 mph 1024.2mb 38f 38f
10:36 9 13 mph 1024.1mb 38f 38f
10:30 8 10 mph 1024.1mb 38f 38f
10:24 9 13 mph 1024.3mb 38f 38f
10:18 10 15 mph 1024.1mb 38f 38f
10:12 10 13 mph 1024.1mb 38f 38f
10:06 9 13 mph 1024mb 38f 38f
10:00 8 13 mph 1023.5mb 38f 37f
9:54 7 9 mph 1023.7mb 37f 37f
9:48 3 7 mph 1024mb 37f 37f
9:42 5 7 mph 1023.6mb 37f 37f
9:36 5 6 mph 1023.7mb 37f 37f
9:30  -  2 mph 1023.6mb 37f 37f
9:24 2 3 mph 1023.8mb 37f 36f
9:18 2 3 mph 1023.7mb 37f 36f
9:12 2
mph
1023.7mb 37f 36f
9:06 2
mph
1023.7mb 37f 35f
9:00 2
mph
1023.5mb 37f 35f
8:54 2
mph
1023.3mb 37f 36f
8:48  -  1 mph 1023.3mb 37f 36f
8:42  -  2 mph 1023.2mb 37f 36f
8:36 2
mph
1023.2mb 37f 35f
8:30  -  1 mph 1022.9mb 37f 35f
8:24 1 2 mph 1022.9mb 37f 35f
8:18  -  1 mph 1022.8mb 37f 35f
8:12  -  1 mph 1022.7mb 37f 35f
8:06  -  mph 1022.4mb 37f 35f
8:00  -  2 mph 1022.3mb 37f 35f
7:54 1 2 mph 1022.4mb 37f 35f
7:48 2
mph
1022.2mb 37f 35f
7:42 2 3 mph 1021.9mb 37f 35f
7:36 2
mph
1021.9mb 37f 35f
7:30  -  1 mph 1021.7mb 37f 35f
7:24 1
mph
1021.3mb 37f 35f
7:18  -  2 mph 1021.4mb 37f 35f
7:12 2
mph
1021.6mb 37f 35f
7:06 1 3 mph 1021.2mb 37f 35f
7:00 3
mph
1020.9mb 37f 35f
6:54 3
mph
1020.9mb 37f 35f
6:48 2 3 mph 1020.7mb 37f 35f
6:42 2 5 mph 1020.5mb 37f 35f
6:36 3 5 mph 1020.3mb 37f 35f
6:30 2
mph
1020.7mb 37f 35f
6:24 1
mph
1020.3mb 37f 35f
6:18 1 2 mph 1020.3mb 37f 35f
6:12  -  1 mph 1020.2mb 37f 35f
6:06 1 2 mph 1020.1mb 37f 35f
6:00 1 2 mph 1019.9mb 37f 35f
5:54  -  2 mph 1019.6mb 37f 35f
5:48 1 2 mph 1019.6mb 36f 35f
5:42  -  1 mph 1019.4mb 36f 35f
5:36 1 2 mph 1019.7mb 36f 35f
5:30 2 3 mph 1019.6mb 36f 35f
5:24 2 3 mph 1019.5mb 36f 34f
5:18 1
mph
1019.3mb 36f 35f
5:12  -  2 mph 1019.2mb 36f 35f
5:06 2
mph
1019.2mb 36f 35f
5:00 1
mph
1019.2mb 36f 35f
4:54  -  1 mph 1019.1mb 36f 35f
4:48  -  2 mph 1018.9mb 37f 35f
4:42 1 2 mph 1019mb 37f 35f
4:36 1 3 mph 1019mb 37f 35f
4:30 3
mph
1018.9mb 37f 35f
4:24 2
mph
1018.9mb 37f 35f
4:18 2 3 mph 1019mb 37f 35f
4:12 2 3 mph 1018.9mb 37f 35f
4:06 2 3 mph 1018.7mb 37f 35f
4:00 2 3 mph 1018.5mb 37f 35f
3:54 2 3 mph 1018.2mb 37f 35f
3:48 2 3 mph 1018.2mb 37f 35f
3:42 2 5 mph 1018.4mb 37f 35f
3:36 5
mph
1018.4mb 37f 35f
3:30 3 5 mph 1018.5mb 37f 35f
3:24 2 3 mph 1018.3mb 37f 36f
3:18 2
mph
1018.2mb 37f 36f
3:12 2 3 mph 1018.2mb 37f 36f
3:06 3 5 mph 1018.1mb 37f 36f
3:00 2 5 mph 1018mb 37f 36f
2:54 5 6 mph 1017.7mb 37f 36f
2:48 3 5 mph 1017.6mb 37f -
2:42 3 5 mph 1017.4mb 37f -
2:36 3
mph
1017.5mb 37f -
2:30 2 3 mph 1017.4mb 37f 36f
2:24 1 2 mph 1017.5mb 37f 36f
2:18  -  2 mph 1017.6mb 37f 36f
2:12 1 2 mph 1017.7mb 37f 36f
2:06 2 7 mph 1017.7mb 37f 36f
2:00 5 7 mph 1017.7mb 37f 36f
1:54 5 6 mph 1017.9mb 37f 36f
1:48 3 6 mph 1017.9mb 37f 35f
1:42 2 5 mph 1017.8mb 37f 35f
1:36  -  1 mph 1017.8mb 37f 35f
1:30  -  1 mph 1017.8mb 37f 35f
1:24 1 2 mph 1017.7mb 37f 35f
1:18  -  2 mph 1017.7mb 37f 35f
1:12 2 3 mph 1017.6mb 37f 35f
1:06 2 5 mph 1017.8mb 37f 35f
1:00 5 6 mph 1017.9mb 37f 35f
12:54 3 5 mph 1017.9mb 37f 35f
12:48 5 7 mph 1017.9mb 37f 35f
12:42 5 7 mph 1017.8mb 37f 35f
12:36 3 7 mph 1017.8mb 37f 35f
12:30 5 6 mph 1018mb 37f 35f
12:24 3 7 mph 1017.8mb 37f 35f
12:18 3 6 mph 1017.9mb 37f 35f
12:12 3 6 mph 1018.2mb 37f 35f
12:06 3 5 mph 1018.1mb 37f 35f
12:00 5 7 mph 1018.1mb 37f 35f
vie 03/24 11:54 3 6 mph 1018.2mb 37f 34f
11:48 2 5 mph 1018.1mb 37f 34f
11:42 3 6 mph 1017.9mb 37f 34f
11:36 5 6 mph 1017.9mb 37f 34f
11:30 3 6 mph 1018mb 37f 34f
11:24 3 6 mph 1018.1mb 37f 34f
11:18 5 6 mph 1018mb 37f 34f
11:12 5
mph
1018mb 37f 34f
11:06 3 6 mph 1018mb 37f 34f
11:00 3 5 mph 1018.2mb 37f 34f
10:54 3 6 mph 1018mb 37f 34f
10:48 2 3 mph 1018mb 37f 34f
10:42 2 5 mph 1018.1mb 37f 34f
10:36 2 6 mph 1018.2mb 37f 34f
10:30 2 5 mph 1018mb 37f 34f
10:24 3 5 mph 1018.1mb 37f 34f
10:18 2 6 mph 1018.3mb 37f 35f
10:12 3 6 mph 1018.4mb 37f 35f
10:06 3 6 mph 1018.4mb 37f 34f
10:00 5 6 mph 1018.4mb 37f 34f
9:54 2 5 mph 1018.1mb 37f 34f
9:48 5 6 mph 1018.3mb 37f 34f
9:42 3 5 mph 1018.3mb 37f 34f
9:36 3
mph
1018.4mb 37f 34f
9:30 2 6 mph 1018.1mb 37f 34f
9:24 5 6 mph 1018mb 37f 34f
9:18 3 5 mph 1018mb 37f 34f
9:12 1 3 mph 1018.4mb 37f 34f
9:06 3
mph
1018.6mb 37f 34f
9:00  -  2 mph 1018.2mb 37f 34f
8:54 1 3 mph 1018.3mb 37f 34f
8:48 2
mph
1018.5mb 37f 34f
8:42 2
mph
1018.4mb 37f 34f
8:36 1 2 mph 1018.4mb 37f 35f
8:30  -  1 mph 1018.3mb 37f 35f
8:24  -  1 mph 1018.4mb 37f 34f
8:18 1 2 mph 1018.5mb 37f 34f
8:12 2 3 mph 1018.6mb 37f 34f
8:06 1 2 mph 1018.6mb 37f 35f
8:00 2
mph
1018.6mb 37f 35f
7:54  -  1 mph 1018.3mb 37f 35f
7:48 1 3 mph 1018.7mb 37f 35f
7:42 2
mph
1018.8mb 37f 35f
7:36 2 3 mph 1018.6mb 37f 35f
7:30 3
mph
1018.8mb 37f 35f
7:24 3 6 mph 1018.9mb 37f 35f
7:18 3 5 mph 1018.9mb 37f 35f
7:12 2 5 mph 1018.5mb 37f 35f
7:06 3
mph
1018.4mb 37f 35f
7:00 2 6 mph 1018.5mb 37f 35f
6:54 3 6 mph 1018.3mb 37f 35f
6:48 5 6 mph 1018.4mb 37f 35f
6:42 5 7 mph 1018.6mb 37f 35f
6:36 6 10 mph 1018.8mb 37f 35f
6:30 8 14 mph 1018.7mb 37f 35f
6:24 11 15 mph 1018.6mb 37f 36f
6:18 10 14 mph 1018.4mb 37f 36f
6:12 10 14 mph 1018.4mb 36f 35f
6:06 11 14 mph 1018.9mb 36f 35f
6:00 13 14 mph 1019.1mb 36f 35f
5:54 13 15 mph 1019mb 36f 35f
5:48 8 11 mph 1018.9mb 36f 35f
5:42 6 8 mph 1019.4mb 36f 34f
5:36 6
mph
1020mb 36f 34f
5:30 6
mph
1019.9mb 36f 33f
5:24 5 6 mph 1020.3mb 36f 33f
5:18 6 7 mph 1020.5mb 36f 33f
5:12 6 7 mph 1020.6mb 36f 33f
5:06 5 7 mph 1020.7mb 36f 33f
5:00 6 7 mph 1020.8mb 36f 33f
4:54 6 7 mph 1021.3mb 36f 33f
4:48 6 9 mph 1021.7mb 36f 33f
4:42 8 9 mph 1021.4mb 36f 33f
4:36 7 8 mph 1021.3mb 36f 33f
4:30 3 5 mph 1021.5mb 37f 33f
4:24 3 6 mph 1021.8mb 37f 33f
4:18 5 6 mph 1021.8mb 37f 33f
4:12 6 8 mph 1021.7mb 37f 33f
4:06 8 10 mph 1021.7mb 37f 33f
4:00 9 10 mph 1021.6mb 37f 33f
3:54 9 10 mph 1021.8mb 37f 33f
3:48 8 10 mph 1021.9mb 37f 33f
3:42 9 10 mph 1021.8mb 37f 33f
3:36 7 8 mph 1022mb 37f 32f
3:30 5 6 mph 1022.4mb 37f 32f
3:24 5 6 mph 1022.7mb 37f 32f
3:18 6 7 mph 1022.9mb 37f 32f
3:12 7 9 mph 1023.1mb 37f 33f
3:06 8 11 mph 1023.3mb 37f 33f
3:00 8 13 mph 1023.3mb 37f 33f
2:54 13 16 mph 1023.3mb 37f 33f
2:48 11 15 mph 1023.3mb 37f 33f
2:42 14 18 mph 1023.3mb 37f 34f
2:36 15 18 mph 1023.6mb 37f 33f
2:30 16 21 mph 1023.9mb 37f 34f
2:24 18 23 mph 1024.1mb 37f 34f
2:18 18 22 mph 1024.1mb 37f 33f
2:12 22 26 mph 1024.1mb 37f 33f
2:06 18 23 mph 1024.2mb 37f 33f
2:00 17 22 mph 1024.3mb 37f 33f
1:54 20 23 mph 1024.4mb 37f 33f
1:48 18 22 mph 1024.8mb 37f 32f
1:42 16 21 mph 1025.2mb 37f 32f
1:36 13 15 mph 1025.5mb 37f 32f
1:30 11 15 mph 1025.9mb 37f 32f
1:24 11 14 mph 1026mb 37f 32f
1:18 10 13 mph 1026.2mb 37f 32f
1:12 11 15 mph 1026.3mb 37f 32f
1:06 11 15 mph 1026.4mb 37f 32f
1:00 13 15 mph 1026.6mb 37f 32f
12:54 13 16 mph 1026.7mb 38f 32f
12:48 13 17 mph 1026.9mb 38f 32f
12:42 14 17 mph 1027.2mb 38f 31f
12:36 11 15 mph 1027.2mb 38f 31f
12:30 14 16 mph 1027.6mb 38f 31f
12:24 11 15 mph 1027.9mb 38f 30f
12:18 13 15 mph 1028mb 38f 30f
12:12 13 15 mph 1028.2mb 38f 30f
12:06 8 13 mph 1028.2mb 38f 30f
12:00 9 11 mph 1028.8mb 38f 30f
11:54 10 13 mph 1029.1mb 38f 29f
11:48 10 11 mph 1029.3mb 38f 29f
11:42 11 14 mph 1029.6mb 38f 29f
11:36 10 13 mph 1029.7mb 38f 29f
11:30 10 18 mph 1029.8mb 38f 29f
11:24 14 17 mph 1030.1mb 38f 29f
11:18 9 14 mph 1030.2mb 38f 29f
11:12 10 18 mph 1030.4mb 38f 29f
11:06 17 23 mph 1030.5mb 38f 30f
11:00 14 21 mph 1030.3mb 38f 32f
10:54 10 17 mph 1030mb 38f 33f
10:48 9 17 mph 1030mb 38f 33f
10:42 11 22 mph 1029.9mb 38f 33f
10:36 16 25 mph 1030mb 38f 33f
10:30 18 31 mph 1030.4mb 38f 34f
10:24 17 22 mph 1030.3mb 38f 34f
10:18 16 21 mph 1030.5mb 38f 34f
10:12 15 18 mph 1030.3mb 38f 34f
10:06 16 20 mph 1030.2mb 38f 34f
10:00 14 18 mph 1030.3mb 38f 35f
9:54 14 17 mph 1030.4mb 38f 35f
9:48 14 16 mph 1030.7mb 38f 35f
9:42 13 16 mph 1030.8mb 38f 35f
9:36 13 16 mph 1030.8mb 38f 35f
9:30 13 17 mph 1030.8mb 38f 35f
9:24 14 21 mph 1030.9mb 38f 35f
9:18 11 15 mph 1030.9mb 38f 35f
9:12 10 15 mph 1031mb 38f 35f
9:06 13 17 mph 1031.1mb 38f 35f
9:00 11 15 mph 1031.3mb 38f 35f
8:54 13 15 mph 1031.2mb 38f 35f
8:48 13 15 mph 1031.4mb 38f 35f
8:42 14 18 mph 1031.4mb 38f 35f
8:36 16 20 mph 1031.3mb 38f 35f
8:30 15 17 mph 1031.2mb 38f 35f
8:24 16 20 mph 1031.3mb 38f 35f
8:18 16 21 mph 1031.4mb 38f 35f
8:12 15 20 mph 1031.4mb 38f 35f
8:06 15 17 mph 1031.4mb 38f 34f
8:00 16 18 mph 1031.3mb 38f 34f
7:54 15 17 mph 1031.4mb 38f 34f
7:48 14 16 mph 1031.4mb 38f 34f
7:42 7 14 mph 1031.4mb 38f 32f
7:36 2 5 mph 1031.3mb 38f 28f
7:30 3 5 mph 1031.5mb 38f 28f
7:24 3 5 mph 1031.7mb 38f 27f
7:18 2
mph
1031.8mb 38f 27f
7:12 1
mph
1031.8mb 38f 27f
7:06  -  1 mph 1032.1mb 38f 26f
7:00  -  2 mph 1032.3mb 38f 26f
6:54 2
mph
1032.4mb 38f 25f
6:48 1
mph
1032.4mb 38f 25f
6:42 2
mph
1032.4mb 38f 25f
6:36  -  1 mph 1032.3mb 38f 25f
6:30  -  1 mph 1032.2mb 38f 25f
6:24 1 2 mph 1032.4mb 38f 24f
6:18 1 2 mph 1032.5mb 38f 24f
6:12 2 3 mph 1032.5mb 38f 24f
6:06 2
mph
1032.4mb 38f 25f
6:00 1 3 mph 1032.4mb 38f 25f
5:54 2 3 mph 1032.5mb 38f 25f
5:48 3
mph
1032.6mb 37f 25f
5:42 2 3 mph 1032.5mb 37f 26f
5:36 2
mph
1032.4mb 37f 25f
5:30 2 3 mph 1032.3mb 37f 26f
5:24 2 5 mph 1032.1mb 37f 26f
5:18 3 5 mph 1032.1mb 37f 26f
5:12 3
mph
1032.1mb 37f 26f
5:06 2 5 mph 1032.1mb 37f 26f
5:00 2 5 mph 1032.3mb 37f 26f
4:54 3
mph
1032.3mb 37f 26f
4:48 2 5 mph 1032.5mb 37f 26f
4:42 3 6 mph 1032.7mb 37f 26f
4:36 5 6 mph 1032.6mb 36f 26f
4:30 3 5 mph 1032.4mb 36f 26f
4:24 3 5 mph 1032.6mb 36f 26f
4:18 3 5 mph 1032.6mb 36f 27f
4:12 3 5 mph 1032.6mb 36f 27f
4:06 3 5 mph 1032.8mb 36f 27f
4:00 3 6 mph 1032.7mb 36f 27f
3:54 3 5 mph 1032.8mb 36f 27f
3:48 5 6 mph 1032.7mb 37f 27f
3:42 5 6 mph 1032.8mb 37f 26f
3:36 1 3 mph 1032.9mb 37f 26f
3:30 1 3 mph 1032.7mb 37f 25f
3:24 2 3 mph 1032.6mb 37f 25f
3:18 1 2 mph 1032.6mb 37f 25f
3:12  -  2 mph 1032.6mb 37f 25f
3:06 1 3 mph 1032.5mb 37f 25f
3:00 2 3 mph 1032.5mb 37f 25f
2:54 2
mph
1032.4mb 37f 24f
2:48 1 3 mph 1032.6mb 37f 24f
2:42 2 3 mph 1032.6mb 37f 24f
2:36  -  1 mph 1032.6mb 37f 25f
2:30  -  1 mph 1032.7mb 37f 25f
2:24 1 2 mph 1032.8mb 37f 25f
2:18 1 3 mph 1032.9mb 37f 25f
2:12 2 3 mph 1033.1mb 37f 24f
2:06 2 3 mph 1033.2mb 37f 25f
2:00  -  3 mph 1033.3mb 37f 25f
1:54 3 5 mph 1033.7mb 37f 26f
1:48 5 6 mph 1033.8mb 37f -
1:42 6
mph
1033.9mb 37f -
1:36 2 3 mph 1033.7mb 37f -
1:30 2
mph
1033.6mb 37f 24f
1:24 2
mph
1033.6mb 37f 23f
1:18 2
mph
1033.7mb 37f 23f
1:12 1 2 mph 1033.8mb 37f 24f
1:06 1 2 mph 1033.9mb 38f 26f
1:00 1
mph
1033.9mb 38f 24f
12:54 1
mph
1034mb 38f 24f
12:48 1 2 mph 1033.8mb 38f 24f
12:42 1 2 mph 1033.8mb 38f 26f
12:36  -  1 mph 1033.7mb 38f 26f
12:30  -  1 mph 1033.7mb 38f 25f
12:24  -  2 mph 1033.7mb 38f 25f
12:18 1 2 mph 1033.5mb 38f 26f
12:12 2
mph
1033.6mb 38f 25f
12:06 2 3 mph 1033.6mb 38f 26f
12:00 2 3 mph 1033.5mb 38f 26f
jue 03/23 11:54 2
mph
1033.4mb 38f 26f
11:48 2
mph
1033.2mb 38f 28f
11:42  -  1 mph 1033.2mb 38f 28f
11:36 1
mph
1033.1mb 38f 28f
11:30  -  3 mph 1033.1mb 38f 27f
11:24 3 6 mph 1033mb 38f 28f
11:18 3 5 mph 1033.1mb 38f 28f
11:12 2 3 mph 1033.1mb 38f 28f
11:06 3
mph
1033.1mb 38f 28f
11:00 5 6 mph 1033.1mb 38f 28f
10:54 3 5 mph 1033.1mb 38f 29f
10:48 3
mph
1033.1mb 38f 29f
10:42 3 6 mph 1033.1mb 38f 29f
10:36 3 6 mph 1033.1mb 38f 29f
10:30 3 5 mph 1033.1mb 38f 29f
10:24 3 6 mph 1033mb 38f 29f
10:18 3 8 mph 1033mb 38f 29f
10:12 6 8 mph 1032.9mb 38f 30f
10:06 6 8 mph 1032.9mb 38f 30f
10:00 6 8 mph 1032.9mb 38f 30f
9:54 6 8 mph 1032.9mb 38f 30f
9:48 6 8 mph 1032.8mb 38f 30f
9:42 6 10 mph 1032.6mb 38f 30f
9:36 8 10 mph 1032.3mb 38f 30f
9:30 7 9 mph 1032.2mb 38f 29f
9:24 6 8 mph 1032.3mb 38f 29f
9:18 6
mph
1032.5mb 38f 30f
9:12 5 6 mph 1032.6mb 38f 30f
9:06 5 7 mph 1032.7mb 38f 30f
9:00 5 7 mph 1032.5mb 38f 30f
8:54 5 7 mph 1032.3mb 38f 29f
8:48 6 7 mph 1032.2mb 38f 31f
8:42 2 5 mph 1032.2mb 38f 31f
8:36  -  2 mph 1032.3mb 38f 31f
8:30 2 6 mph 1032.3mb 38f 31f
8:24 3 6 mph 1032.1mb 38f 31f
8:18 5 7 mph 1032mb 38f 31f
8:12 6 8 mph 1031.7mb 38f 31f
8:06 6 7 mph 1031.4mb 38f 31f
8:00 6 9 mph 1031.2mb 38f 31f
7:54 6 9 mph 1031mb 38f 32f
7:48 6 10 mph 1030.9mb 38f 32f
7:42 7 10 mph 1030.8mb 38f 32f
7:36 5 7 mph 1030.8mb 38f 32f
7:30 5 8 mph 1030.6mb 38f 32f
7:24 7 10 mph 1030.5mb 38f 32f
7:18 9 14 mph 1030.3mb 38f 33f
7:12 8 14 mph 1030.2mb 38f 33f
7:06 10 16 mph 1030.2mb 38f 33f
7:00 9 15 mph 1030.1mb 38f 33f
6:54 9 15 mph 1030.1mb 38f 33f
6:48 9 18 mph 1030.1mb 38f 34f
6:42 10 16 mph 1030mb 38f 34f
6:36 9 17 mph 1030mb 38f 34f
6:30 8 16 mph 1029.8mb 38f 34f
6:24 11 20 mph 1029.7mb 38f 34f
6:18 9 24 mph 1029.5mb 38f 35f
6:12 16 24 mph 1029.2mb 38f 34f
6:06 16 28 mph 1029mb 38f 34f
6:00 11 21 mph 1029mb 38f 34f
5:54 13 22 mph 1029.1mb 38f 35f
5:48 13 22 mph 1029mb 38f 35f
5:42 11 21 mph 1028.9mb 38f 35f
5:36 18 24 mph 1028.8mb 38f 35f
5:30 14 23 mph 1028.8mb 38f 35f
5:24 11 21 mph 1028.8mb 37f 35f
5:18 14 24 mph 1028.7mb 37f 35f
5:12 15 25 mph 1028.7mb 37f 35f
5:06 14 23 mph 1028.5mb 37f 35f
5:00 16 24 mph 1028.4mb 37f 35f
4:54 16 23 mph 1028.3mb 37f 35f
4:48 14 22 mph 1028.3mb 37f 35f
4:42 16 22 mph 1028.2mb 37f 35f
4:36 15 22 mph 1028.2mb 37f 35f
4:30 14 29 mph 1028.1mb 37f 35f
4:24 11 18 mph 1028.2mb 37f 35f
4:18 13 23 mph 1028.3mb 37f 35f
4:12 9 23 mph 1028.3mb 37f 35f
4:06 15 24 mph 1028.3mb 37f 34f
4:00 7 26 mph 1028.4mb 37f 35f
3:54 8 22 mph 1028.4mb 36f 35f
3:48 15 23 mph 1028.3mb 36f 34f
3:42 15 23 mph 1028.4mb 36f 34f
3:36 14 18 mph 1028.3mb 36f 34f
3:30 14 22 mph 1028.4mb 36f 33f
3:24 15 23 mph 1028.3mb 36f 33f
3:18 17 22 mph 1028.2mb 36f 33f
3:12 15 22 mph 1028.3mb 36f 33f
3:06 14 22 mph 1028.4mb 36f 33f
3:00 18 24 mph 1028.4mb 36f 32f
2:54 14 23 mph 1028.4mb 36f 33f
2:48 10 24 mph 1028.3mb 36f 33f
2:42 15 21 mph 1028.3mb 36f 32f
2:36 11 22 mph 1028.3mb 36f 32f
2:30 11 15 mph 1028.3mb 36f 32f
2:24 13 22 mph 1028.3mb 36f 32f
2:18 11 17 mph 1028.3mb 36f 32f
2:12 11 21 mph 1028.4mb 36f 32f
2:06 9 15 mph 1028.4mb 36f 32f
2:00 17 22 mph 1028.4mb 36f 31f
1:54 7 17 mph 1028.5mb 36f 32f
1:48 8 17 mph 1028.5mb 36f 32f
1:42 13 20 mph 1028.5mb 36f 32f
1:36 11 21 mph 1028.7mb 37f 31f
1:30 10 20 mph 1028.6mb 37f 31f
1:24 11 17 mph 1028.7mb 37f 31f
1:18 9 16 mph 1028.8mb 37f 31f
1:12 8 16 mph 1028.8mb 37f 30f
1:06 11 18 mph 1028.9mb 37f 30f
1:00 8 16 mph 1028.9mb 37f 30f
12:54 11 17 mph 1029mb 37f 30f
12:48 14 22 mph 1028.9mb 37f 29f
12:42 10 15 mph 1029mb 37f 30f
12:36 13 17 mph 1029.1mb 37f 29f
12:30 11 18 mph 1029.1mb 37f 29f
12:24 13 20 mph 1029.2mb 37f 28f
12:18 14 21 mph 1029.3mb 37f 28f
12:12 14 21 mph 1029.4mb 37f 28f
12:06 15 20 mph 1029.4mb 37f 28f
12:00 8 15 mph 1029.6mb 37f 28f
11:54 7 20 mph 1029.7mb 37f 27f
11:48 10 17 mph 1029.8mb 37f 26f
11:42 11 20 mph 1029.9mb 37f 26f
11:36 5 17 mph 1030mb 37f 26f
11:30 15 18 mph 1030mb 37f 26f
11:24 13 20 mph 1030mb 37f 26f
11:18 8 14 mph 1030.1mb 37f 25f
11:12 10 16 mph 1030.2mb 37f 24f
11:06 11 18 mph 1030.1mb 37f 24f
11:00 7 18 mph 1030.2mb 37f 24f
10:54 10 17 mph 1030.2mb 37f 24f
10:48 7 14 mph 1030.2mb 37f 24f
10:42 10 16 mph 1030.3mb 37f 23f
10:36 9 17 mph 1030.4mb 37f 23f
10:30 6 16 mph 1030.4mb 37f 24f
10:24 11 18 mph 1030.4mb 37f 22f
10:18 11 17 mph 1030.4mb 37f 23f
10:12 8 14 mph 1030.4mb 37f 23f
10:06 10 20 mph 1030.3mb 37f 23f
10:00 10 15 mph 1030.4mb 37f 22f
9:54 8 15 mph 1030.3mb 37f 22f
9:48 13 16 mph 1030.3mb 37f 21f
9:42 9 17 mph 1030.3mb 37f 22f
9:36 10 15 mph 1030.3mb 37f 22f
9:30 5 14 mph 1030.4mb 37f 22f
9:24 11 18 mph 1030.3mb 37f 21f
9:18 7 15 mph 1030.4mb 37f 21f
9:12 9 16 mph 1030.3mb 37f 20f
9:06 11 15 mph 1030.3mb 37f 20f
9:00 9 14 mph 1030.3mb 37f 20f
8:54 8 14 mph 1030.3mb 37f 20f
8:48 8 11 mph 1030.2mb 37f 20f
8:42 8 13 mph 1030.2mb 37f 20f
8:36 7 11 mph 1030.2mb 37f 20f
8:30 6 11 mph 1030.2mb 37f 19f
8:24 6 10 mph 1030.3mb 37f 19f
8:18 7 9 mph 1030.2mb 37f 19f
8:12 5 7 mph 1030.2mb 37f 19f
8:06 5 8 mph 1030.2mb 37f 19f
8:00 5 7 mph 1030.2mb 37f 18f
7:54 5 6 mph 1030.1mb 37f 18f
7:48 5 6 mph 1030mb 37f 18f
7:42 3 6 mph 1030mb 37f 18f
7:36 2 3 mph 1030mb 37f 18f
7:30 2 5 mph 1030mb 37f 18f
7:24 2 3 mph 1029.9mb 37f 18f
7:18 2 3 mph 1029.8mb 37f 17f
7:12 3 5 mph 1029.7mb 37f 17f
7:06 2 3 mph 1029.7mb 37f 17f
7:00 3 5 mph 1029.6mb 37f 17f
6:54 3 6 mph 1029.6mb 37f 16f
6:48 5 8 mph 1029.5mb 37f 16f
6:42 3 6 mph 1029.3mb 37f 16f
6:36 6 7 mph 1029.2mb 37f 16f
6:30 5 10 mph 1029.1mb 37f 16f
6:24 8 10 mph 1029.1mb 37f 16f
6:18 6 8 mph 1029mb 37f 17f
6:12 5 7 mph 1028.9mb 37f 17f
6:06 2 5 mph 1028.8mb 37f 17f
6:00 5 7 mph 1028.7mb 37f 17f
5:54 6 9 mph 1028.5mb 37f 16f
5:48 7 9 mph 1028.4mb 37f 16f
5:42 8 13 mph 1028.3mb 37f 17f
5:36 6 8 mph 1028.2mb 37f 16f
5:30 7 10 mph 1028.1mb 37f 17f
5:24 9 11 mph 1027.9mb 37f 17f
5:18 11 15 mph 1027.9mb 37f 17f
5:12 9 14 mph 1027.8mb 37f 17f
5:06 9 11 mph 1027.8mb 36f 17f
5:00 7 10 mph 1027.7mb 36f 17f
4:54 7 10 mph 1027.7mb 36f 17f
4:48 7 11 mph 1027.5mb 36f 17f
4:42 7 13 mph 1027.4mb 36f 17f
4:36 9 14 mph 1027.3mb 36f 17f
4:30 9 11 mph 1027.1mb 36f 17f
4:24 8 13 mph 1027.1mb 36f 17f
4:18 8 11 mph 1027mb 36f 17f
4:12 10 18 mph 1026.9mb 35f 17f
4:06 13 18 mph 1026.8mb 35f 17f
4:00 10 16 mph 1026.8mb 35f 17f
3:54 11 16 mph 1026.8mb 35f 17f
3:48 15 18 mph 1026.6mb 35f 18f
3:42 10 20 mph 1026.7mb 35f 17f
3:36 16 21 mph 1026.6mb 35f 18f
3:30 15 20 mph 1026.6mb 35f 18f
3:24 11 20 mph 1026.6mb 35f 17f
3:18 13 21 mph 1026.5mb 35f 17f
3:12 16 22 mph 1026.4mb 36f 18f
3:06 13 22 mph 1026.4mb 36f 17f